[[{"header":{"parameterUnit":"m.s-1","parameterCategory":1,"la1":30.2991,"la2":30.254,"lo1":-89.0895,"lo2":-89.0444,"dy":0.0017,"dx":0.0017,"nx":28,"ny":28,"refTime":"2023-10-17T21:00:00:Z","depth":0,"parameterNumber":2,"parameterNumberName":"U-component_of_WINDS"},"data":[0,0,0,0,0,0,0,0,0,0,0,0,0,0,0,0,0,0,0,0,0,0,0,0,0,0,0,0,0,0,0,0,0,0,0,0,0,0,0,0,0,0,0,0,0,0,0,0,0,0,0,0,0,0,0,0,0,0,-0.7048,-0.7048,0,-0.7046,-0.7046,-0.7046,-0.7042,-0.7041,-0.7041,-0.7041,-0.7038,-0.7038,-0.7038,0,0,0,0,0,0,0,0,0,0,0,0,0,-0.7049,-0.7049,-0.7048,-0.7048,-0.7048,-0.7046,-0.7046,-0.7046,-0.7042,-0.7041,-0.7041,-0.7041,-0.7038,-0.7038,-0.7038,0,0,0,0,0,0,0,0,0,0,0,0,0,-0.7048,-0.7049,-0.7048,-0.7046,-0.7046,-0.7046,-0.7046,-0.7046,-0.7042,-0.7041,-0.7041,-0.7041,-0.7038,-0.7038,-0.7038,-0.704,0,0,-0.7038,-0.7038,0,0,0,0,0,0,0,0,-0.7048,-0.7048,-0.7046,-0.7046,-0.7046,-0.7044,-0.7045,-0.7044,-0.7042,-0.7043,-0.7041,-0.7041,-0.704,-0.704,-0.704,-0.704,-0.704,-0.7038,-0.7038,-0.7038,-0.7038,0,0,0,0,0,0,0,-0.7048,-0.7048,-0.7047,-0.7046,-0.7046,-0.7045,-0.7045,-0.7045,-0.7042,-0.7043,-0.7043,-0.7042,-0.704,-0.704,-0.704,-0.704,-0.7038,-0.7038,-0.7038,-0.7038,-0.7042,-0.7042,0,0,0,0,0,0,-0.7049,-0.7048,-0.7047,-0.7047,-0.7047,-0.7045,-0.7045,-0.7045,-0.7042,-0.7042,-0.7043,-0.7042,-0.704,-0.704,-0.7039,-0.7042,-0.7038,-0.7038,-0.7038,-0.7042,-0.7042,-0.7042,0,0,0,0,0,0,-0.7049,-0.7049,-0.7047,-0.7048,-0.7047,-0.7045,-0.7045,-0.7045,-0.7044,-0.7042,-0.7041,-0.7043,-0.704,-0.7039,-0.704,-0.7041,-0.7038,-0.7038,-0.7041,-0.7042,-0.7042,-0.7046,0,0,0,0,0,0,-0.7049,-0.7049,-0.7049,-0.7048,-0.7047,-0.7048,-0.7045,-0.7045,-0.7044,-0.7044,-0.7042,-0.7041,-0.704,-0.704,-0.704,-0.7041,-0.7038,-0.7041,-0.7042,-0.7042,-0.7046,-0.7046,-0.7047,0,0,0,0,0,-0.7049,-0.7051,-0.705,-0.7049,-0.7048,-0.7048,-0.7048,-0.7046,-0.7044,-0.7045,-0.7044,-0.7042,-0.7041,-0.704,-0.704,-0.7041,-0.7041,-0.7041,-0.7042,-0.7045,-0.7046,-0.7047,0,0,0,0,0,0,-0.7052,-0.705,-0.7049,-0.705,-0.705,-0.7048,-0.7048,-0.7047,-0.7046,-0.7046,-0.7043,-0.7043,-0.7044,-0.7043,-0.7041,-0.7043,-0.7041,-0.7041,-0.7044,-0.7044,-0.7045,-0.7045,-0.7038,0,0,0,0,0,-0.7053,-0.7054,-0.7052,-0.7053,-0.7053,-0.7051,-0.705,-0.7049,-0.7048,-0.7048,-0.7046,-0.7045,-0.7045,-0.7045,-0.7044,-0.7046,-0.7045,-0.7047,-0.7047,-0.7048,-0.7048,-0.7048,-0.7049,-0.7043,-0.7043,-0.7043,0,0,-0.7055,-0.7054,-0.7054,-0.7054,-0.7053,-0.7053,-0.705,-0.7051,-0.7051,-0.7048,-0.7048,-0.7047,-0.7046,-0.7047,-0.7047,-0.7046,-0.7049,-0.7048,-0.7048,-0.7048,-0.7049,-0.7049,-0.705,-0.7043,-0.7043,-0.7043,0,0,-0.7059,-0.7058,-0.7059,-0.7058,-0.7057,-0.7056,-0.7056,-0.7055,-0.7054,-0.7054,-0.7052,-0.7052,-0.7052,-0.7051,-0.705,-0.7054,-0.7052,-0.7054,-0.7057,-0.7058,-0.7058,-0.7058,-0.706,-0.706,-0.7054,-0.7054,-0.7054,0,-0.7061,-0.7061,-0.706,-0.706,-0.706,-0.7057,-0.7058,-0.7058,-0.7057,-0.7056,-0.7055,-0.7055,-0.7054,-0.7055,-0.7056,-0.7055,-0.7055,-0.7054,-0.7058,-0.7059,-0.7059,-0.706,-0.706,-0.7055,-0.7055,-0.7055,-0.7055,0,-0.7064,-0.7065,-0.7066,-0.7065,-0.7065,-0.7065,-0.7064,-0.7064,-0.7062,-0.7061,-0.7062,-0.7061,-0.706,-0.706,-0.7059,-0.7061,-0.706,-0.7059,-0.7056,-0.706,-0.7061,-0.7061,-0.7055,-0.7055,-0.7055,-0.7055,0,0,-0.707,-0.7068,-0.7068,-0.7068,-0.7067,-0.7067,-0.7068,-0.7067,-0.7067,-0.7067,-0.7067,-0.7067,-0.7066,-0.7065,-0.7064,-0.7065,-0.7068,-0.7063,-0.7063,-0.7064,-0.707,-0.7071,-0.7071,-0.7066,-0.7067,-0.7067,-0.707,0,-0.7073,-0.7074,-0.7072,-0.7074,-0.7074,-0.7072,-0.7073,-0.7072,-0.7071,-0.7071,-0.707,-0.707,-0.7068,-0.7068,-0.7068,-0.7067,-0.7069,-0.7067,-0.7067,-0.7067,-0.7067,-0.7072,-0.7073,-0.7076,-0.707,-0.707,-0.707,0,-0.7076,-0.7076,-0.7078,-0.7077,-0.7077,-0.7077,-0.7077,-0.7077,-0.7076,-0.7076,-0.7075,-0.7074,-0.7074,-0.7072,-0.7073,-0.7072,-0.7072,-0.7071,-0.7071,-0.7071,-0.7069,-0.7071,-0.7077,-0.7077,-0.7071,-0.7071,-0.7071,0,-0.708,-0.708,-0.7081,-0.7081,-0.7079,-0.708,-0.7079,-0.7079,-0.7079,-0.7078,-0.7078,-0.7078,-0.7078,-0.7078,-0.7076,-0.7075,-0.7077,-0.7075,-0.7076,-0.7076,-0.7076,-0.7076,-0.7082,-0.7077,-0.7077,-0.7077,-0.7077,0,-0.7083,-0.7084,-0.7082,-0.7083,-0.7084,-0.7082,-0.7084,-0.7083,-0.7082,-0.7083,-0.7081,-0.7081,-0.7079,-0.7079,-0.7078,-0.7079,-0.7079,-0.7078,-0.7078,-0.7078,-0.7078,-0.7078,-0.7077,-0.7077,-0.7077,-0.7077,-0.7077,0,-0.7087,-0.7086,-0.7087,-0.7086,-0.7086,-0.7086,-0.7086,-0.7086,-0.7085,-0.7086,-0.7086,-0.7084,-0.7084,-0.7083,-0.7083,-0.7082,-0.7083,-0.7082,-0.7083,-0.7083,-0.7084,-0.7084,-0.7089,-0.709,-0.7085,-0.7085,-0.7085,0,-0.7089,-0.709,-0.7089,-0.7089,-0.7089,-0.7089,-0.7089,-0.7088,-0.7088,-0.7087,-0.7088,-0.7088,-0.7088,-0.7088,-0.7087,-0.7087,-0.7086,-0.7088,-0.7086,-0.7086,-0.7086,-0.7086,-0.7086,-0.7088,-0.7088,-0.7088,-0.7088,0,-0.7093,-0.7093,-0.7093,-0.7093,-0.7093,-0.7093,-0.7093,-0.7093,-0.7091,-0.7092,-0.7092,-0.7092,-0.7092,-0.7092,-0.7091,-0.7091,-0.7089,-0.7089,-0.7089,-0.709,-0.709,-0.709,-0.7084,-0.7089,-0.7089,-0.7089,-0.7089,-0.7089,-0.7096,-0.7097,-0.7096,-0.7097,-0.7096,-0.7096,-0.7097,-0.7096,-0.7096,-0.7096,-0.7095,-0.7096,-0.7095,-0.7094,-0.7094,-0.7094,-0.7093,-0.7094,-0.7094,-0.7094,-0.7094,-0.709,-0.7094,-0.7094,-0.7094,-0.7094,-0.7094,0,-0.71,-0.71,-0.71,-0.71,-0.71,-0.7099,-0.7099,-0.7099,-0.7099,-0.7099,-0.7099,-0.7099,-0.7099,-0.7098,-0.7098,-0.7099,-0.7098,-0.7099,-0.7099,-0.7098,-0.7095,-0.7095,-0.7099,-0.7099,-0.7099,-0.7099,-0.7099,-0.7099,-0.7102,-0.7103,-0.7103,-0.7103,-0.7103,-0.7103,-0.7103,-0.7103,-0.7103,-0.7103,-0.7103,-0.7103,-0.7102,-0.7102,-0.7102,-0.7102,-0.7102,-0.7103,-0.7102,-0.7099,-0.7099,-0.7098,-0.7098,-0.7103,-0.7103,-0.7106,-0.7106,-0.7106]},{"header":{"parameterUnit":"m.s-1","parameterCategory":1,"la1":30.2991,"la2":30.254,"lo1":-89.0895,"lo2":-89.0444,"dy":0.0017,"dx":0.0017,"nx":28,"ny":28,"refTime":"2023-10-17T21:00:00:Z","depth":0,"parameterNumber":3,"parameterNumberName":"V-component_of_WINDS"},"data":[0,0,0,0,0,0,0,0,0,0,0,0,0,0,0,0,0,0,0,0,0,0,0,0,0,0,0,0,0,0,0,0,0,0,0,0,0,0,0,0,0,0,0,0,0,0,0,0,0,0,0,0,0,0,0,0,0,0,3.4303,3.4303,0,3.4282,3.4282,3.4282,3.4222,3.422,3.4219,3.4218,3.4196,3.4196,3.4197,0,0,0,0,0,0,0,0,0,0,0,0,0,3.429,3.429,3.4303,3.4303,3.4303,3.4282,3.4282,3.4282,3.4222,3.422,3.4219,3.4217,3.4196,3.4196,3.4197,0,0,0,0,0,0,0,0,0,0,0,0,0,3.4285,3.429,3.4303,3.427,3.4267,3.4283,3.4282,3.4282,3.4222,3.422,3.4218,3.4216,3.4195,3.4196,3.4197,3.4243,0,0,3.42,3.4201,0,0,0,0,0,0,0,0,3.4285,3.4285,3.4275,3.4273,3.4269,3.4253,3.4269,3.4269,3.4223,3.4239,3.4218,3.4215,3.4216,3.4215,3.4216,3.4242,3.4241,3.42,3.4201,3.4201,3.4202,0,0,0,0,0,0,0,3.4286,3.4286,3.4295,3.4275,3.4271,3.4256,3.4253,3.4269,3.4239,3.4238,3.4233,3.4232,3.4214,3.4215,3.4215,3.424,3.42,3.4201,3.4202,3.4202,3.43,3.4302,0,0,0,0,0,0,3.4291,3.4287,3.4296,3.4294,3.4272,3.4258,3.4255,3.426,3.4239,3.4234,3.4233,3.4229,3.4214,3.4214,3.4214,3.4263,3.4201,3.4202,3.4203,3.4298,3.43,3.4302,0,0,0,0,0,0,3.4291,3.4292,3.4296,3.4289,3.4289,3.426,3.4267,3.426,3.4261,3.4235,3.423,3.424,3.4213,3.4212,3.4235,3.4262,3.4203,3.4204,3.4296,3.4299,3.4301,3.4364,0,0,0,0,0,0,3.4291,3.4293,3.431,3.429,3.4289,3.4319,3.4268,3.4262,3.4263,3.4257,3.424,3.4235,3.4211,3.4234,3.4236,3.4262,3.4204,3.4293,3.4297,3.43,3.436,3.4369,3.4377,0,0,0,0,0,3.429,3.4329,3.4311,3.4313,3.4311,3.4321,3.432,3.4292,3.4266,3.4282,3.4265,3.4236,3.4259,3.4237,3.4239,3.4265,3.4291,3.4296,3.43,3.4356,3.4367,3.4377,0,0,0,0,0,0,3.4353,3.4326,3.4306,3.4339,3.4333,3.4311,3.4331,3.4305,3.4306,3.43,3.4265,3.4262,3.4289,3.428,3.4256,3.4307,3.427,3.4275,3.4312,3.4323,3.4331,3.4332,3.4205,0,0,0,0,0,3.4371,3.4382,3.4357,3.4389,3.4387,3.436,3.4363,3.4342,3.4334,3.433,3.4315,3.4308,3.4313,3.4318,3.4322,3.4359,3.4353,3.4378,3.4387,3.4394,3.4398,3.4414,3.4424,3.4317,3.4317,3.4317,0,0,3.4407,3.4394,3.4403,3.4401,3.4394,3.4405,3.4358,3.4372,3.438,3.4333,3.4352,3.4341,3.4331,3.4361,3.4373,3.4354,3.4427,3.44,3.4406,3.4406,3.442,3.443,3.4439,3.432,3.432,3.4319,0,0,3.4479,3.4471,3.4495,3.4489,3.4478,3.4459,3.4465,3.4447,3.4437,3.4457,3.4421,3.4429,3.444,3.4433,3.4432,3.45,3.4471,3.4502,3.4547,3.4563,3.4572,3.4579,3.4601,3.461,3.4507,3.4507,3.4507,0,3.4526,3.4541,3.4511,3.4527,3.4527,3.4485,3.4508,3.4503,3.4494,3.4494,3.4473,3.4484,3.4475,3.4501,3.4517,3.4518,3.4522,3.4503,3.4573,3.458,3.4586,3.4607,3.4616,3.4511,3.451,3.451,3.451,0,3.4598,3.461,3.4631,3.4622,3.4624,3.4644,3.4616,3.4622,3.4601,3.4584,3.4603,3.459,3.4589,3.4595,3.4574,3.4617,3.4605,3.458,3.4541,3.4601,3.4619,3.4627,3.4516,3.4514,3.4513,3.4513,0,0,3.4708,3.4682,3.469,3.4685,3.4669,3.4677,3.4695,3.4694,3.4698,3.4693,3.4706,3.4715,3.4691,3.4688,3.4667,3.4682,3.4733,3.4653,3.4652,3.4667,3.4777,3.4795,3.4805,3.4715,3.4717,3.4718,3.4777,0,3.4774,3.4802,3.4775,3.4808,3.4817,3.4777,3.4792,3.4783,3.4768,3.4773,3.4757,3.4763,3.4731,3.4729,3.4742,3.4724,3.4755,3.472,3.4725,3.4725,3.4727,3.4815,3.4835,3.4891,3.4785,3.4786,3.4787,0,3.4854,3.4852,3.4886,3.4867,3.4869,3.4883,3.4879,3.4885,3.4874,3.4862,3.4859,3.4833,3.4847,3.4812,3.483,3.4807,3.4807,3.4799,3.4801,3.4798,3.4758,3.4813,3.4909,3.4917,3.4798,3.4797,3.4797,0,3.4928,3.4934,3.4954,3.4951,3.493,3.494,3.4932,3.4919,3.4919,3.4916,3.4915,3.4914,3.4913,3.4912,3.4886,3.4862,3.4907,3.4869,3.4895,3.4896,3.4905,3.4904,3.5,3.4909,3.4909,3.4909,3.4909,0,3.5003,3.5025,3.4987,3.4999,3.5022,3.499,3.5013,3.5001,3.4989,3.4998,3.4964,3.4972,3.4938,3.4942,3.4922,3.4939,3.4939,3.4929,3.4923,3.493,3.4931,3.4929,3.4923,3.4911,3.4911,3.491,3.491,0,3.5088,3.5064,3.5083,3.5061,3.5056,3.5073,3.5054,3.5064,3.5046,3.5057,3.5058,3.5031,3.5034,3.5008,3.5007,3.4993,3.5019,3.5007,3.5022,3.5017,3.5044,3.5041,3.514,3.515,3.5055,3.5056,3.5057,0,3.5137,3.5152,3.5131,3.5134,3.5127,3.5133,3.5133,3.5103,3.5104,3.5092,3.5103,3.5104,3.5102,3.5109,3.5089,3.5087,3.5074,3.5108,3.5073,3.508,3.5071,3.507,3.507,3.5115,3.5116,3.5117,3.5118,0,3.5225,3.5211,3.5213,3.521,3.5211,3.5207,3.5201,3.5206,3.5172,3.5176,3.5178,3.5177,3.5175,3.5176,3.517,3.516,3.5133,3.513,3.5135,3.5142,3.5149,3.5143,3.504,3.5127,3.5126,3.5126,3.5125,3.5125,3.5291,3.5302,3.5289,3.5291,3.5283,3.5278,3.5285,3.5269,3.5271,3.5266,3.5249,3.5254,3.5241,3.523,3.5223,3.5226,3.5209,3.5218,3.522,3.5222,3.5226,3.5151,3.5226,3.5225,3.5225,3.5225,3.5225,0,3.5375,3.5364,3.5367,3.5359,3.536,3.5335,3.5327,3.5329,3.5335,3.5325,3.5324,3.5327,3.5327,3.5306,3.5303,3.5309,3.5297,3.5309,3.5307,3.5305,3.5242,3.5237,3.5319,3.5319,3.5319,3.5319,3.5319,3.5319,3.5418,3.5435,3.542,3.5432,3.5421,3.5426,3.5423,3.5417,3.5409,3.5413,3.5413,3.54,3.5385,3.538,3.5379,3.5372,3.5372,3.5388,3.5378,3.5319,3.531,3.5301,3.5295,3.5389,3.5389,3.544,3.544,3.5441]}]]